• In Schweiz
  • Länderverzeichnis
  • Für 7 Tage
  • Wassertemperatur
  • Satellitenkarten
  • Wetterkarte
  • Widgets
  • user-avatar
    Anmelden

    Stündliche Wetter Serhiivka

    Heute, 24 September, Montag

    Zeit Temperatur Niederschläge Wind Luftdruck Luftfeuchtigkeit
    00:00 +14°C° 0 mm 2 m/S 760 mmHg 56%
    01:00 +14°C° 0 mm 2 m/S 759 mmHg 57%
    02:00 +13°C° 0 mm 2 m/S 759 mmHg 60%
    03:00 +12°C° 0 mm 3 m/S 758 mmHg 62%
    04:00 +12°C° 0 mm 3 m/S 758 mmHg 64%
    05:00 +12°C° 0 mm 3 m/S 758 mmHg 66%
    06:00 +13°C° 0 mm 5 m/S 757 mmHg 62%
    07:00 +14°C° 0 mm 6 m/S 757 mmHg 58%
    08:00 +16°C° 0 mm 7 m/S 756 mmHg 53%
    09:00 +17°C° 0 mm 7 m/S 755 mmHg 50%
    10:00 +20°C° 0 mm 8 m/S 755 mmHg 48%
    11:00 +22°C° 0 mm 8 m/S 754 mmHg 46%
    12:00 +23°C° 0 mm 8 m/S 753 mmHg 47%
    13:00 +24°C° 0 mm 9 m/S 753 mmHg 49%
    14:00 +24°C° 0 mm 8 m/S 752 mmHg 53%
    15:00 +24°C° 0.3 mm 8 m/S 752 mmHg 58%
    16:00 +23°C° 0.3 mm 8 m/S 752 mmHg 64%
    17:00 +22°C° 0.3 mm 8 m/S 752 mmHg 70%
    18:00 +20°C° 0.9 mm 8 m/S 752 mmHg 73%
    19:00 +17°C° 0.9 mm 8 m/S 753 mmHg 75%
    20:00 +13°C° 0.9 mm 9 m/S 754 mmHg 77%
    21:00 +12°C° 0.8 mm 8 m/S 754 mmHg 77%
    22:00 +11°C° 0.8 mm 7 m/S 755 mmHg 77%
    23:00 +11°C° 0.8 mm 7 m/S 755 mmHg 78%

    Morgen, 25 September, Dienstag

    Zeit Temperatur Niederschläge Wind Luftdruck Luftfeuchtigkeit
    00:00 +10°C° 0.8 mm 6 m/S 756 mmHg 76%
    01:00 +10°C° 0.8 mm 6 m/S 756 mmHg 75%
    02:00 +10°C° 0.8 mm 5 m/S 756 mmHg 73%
    03:00 +10°C° 0 mm 5 m/S 757 mmHg 73%
    04:00 +9°C° 0 mm 5 m/S 757 mmHg 72%
    05:00 +9°C° 0 mm 5 m/S 757 mmHg 72%
    06:00 +9°C° 0 mm 6 m/S 757 mmHg 70%
    07:00 +9°C° 0 mm 6 m/S 758 mmHg 69%
    08:00 +9°C° 0 mm 6 m/S 758 mmHg 67%
    09:00 +10°C° 0 mm 6 m/S 758 mmHg 64%
    10:00 +11°C° 0 mm 6 m/S 759 mmHg 60%
    11:00 +12°C° 0 mm 7 m/S 759 mmHg 57%
    12:00 +12°C° 0 mm 7 m/S 759 mmHg 57%
    13:00 +12°C° 0 mm 7 m/S 760 mmHg 56%
    14:00 +12°C° 0 mm 7 m/S 760 mmHg 55%
    15:00 +11°C° 0 mm 7 m/S 760 mmHg 57%
    16:00 +11°C° 0 mm 7 m/S 761 mmHg 59%
    17:00 +10°C° 0 mm 8 m/S 761 mmHg 61%
    18:00 +10°C° 0.1 mm 7 m/S 762 mmHg 63%
    19:00 +9°C° 0.1 mm 6 m/S 762 mmHg 65%
    20:00 +9°C° 0.1 mm 5 m/S 763 mmHg 68%
    21:00 +8°C° 0 mm 5 m/S 763 mmHg 69%
    22:00 +8°C° 0 mm 4 m/S 764 mmHg 71%
    23:00 +7°C° 0 mm 4 m/S 764 mmHg 72%

    übermorgen, 26 September, Mittwoch

    Zeit Temperatur Niederschläge Wind Luftdruck Luftfeuchtigkeit
    00:00 +7°C° 0 mm 4 m/S 765 mmHg 73%
    01:00 +6°C° 0 mm 4 m/S 765 mmHg 74%
    02:00 +7°C° 0 mm 3 m/S 765 mmHg 75%
    03:00 +6°C° 0 mm 4 m/S 765 mmHg 75%
    04:00 +5°C° 0 mm 4 m/S 766 mmHg 76%
    05:00 +5°C° 0 mm 4 m/S 766 mmHg 76%
    06:00 +6°C° 0 mm 4 m/S 767 mmHg 72%
    07:00 +7°C° 0 mm 5 m/S 767 mmHg 69%
    08:00 +8°C° 0 mm 5 m/S 767 mmHg 65%
    09:00 +9°C° 0 mm 5 m/S 767 mmHg 58%
    10:00 +10°C° 0 mm 5 m/S 768 mmHg 52%
    11:00 +13°C° 0 mm 5 m/S 768 mmHg 45%
    12:00 +13°C° 0 mm 5 m/S 768 mmHg 43%
    13:00 +13°C° 0 mm 5 m/S 768 mmHg 42%
    14:00 +13°C° 0 mm 5 m/S 767 mmHg 40%
    15:00 +13°C° 0 mm 5 m/S 767 mmHg 41%
    16:00 +12°C° 0 mm 5 m/S 768 mmHg 43%
    17:00 +12°C° 0 mm 4 m/S 768 mmHg 44%
    18:00 +11°C° 0 mm 4 m/S 768 mmHg 48%
    19:00 +10°C° 0 mm 3 m/S 768 mmHg 52%
    20:00 +9°C° 0 mm 3 m/S 769 mmHg 55%
    21:00 +8°C° 0 mm 3 m/S 769 mmHg 56%
    22:00 +8°C° 0 mm 3 m/S 769 mmHg 57%
    23:00 +8°C° 0 mm 3 m/S 769 mmHg 59%

    27 September, Donnerstag

    Zeit Temperatur Niederschläge Wind Luftdruck Luftfeuchtigkeit
    00:00 +7°C° 0 mm 2 m/S 769 mmHg 59%
    01:00 +7°C° 0 mm 2 m/S 769 mmHg 59%
    02:00 +6°C° 0 mm 2 m/S 769 mmHg 59%
    03:00 +6°C° 0 mm 2 m/S 769 mmHg 59%
    04:00 +6°C° 0 mm 2 m/S 769 mmHg 59%
    05:00 +6°C° 0 mm 2 m/S 768 mmHg 59%
    06:00 +7°C° 0 mm 2 m/S 768 mmHg 55%
    07:00 +8°C° 0 mm 2 m/S 768 mmHg 51%
    08:00 +9°C° 0 mm 3 m/S 768 mmHg 46%
    09:00 +11°C° 0 mm 3 m/S 768 mmHg 42%
    10:00 +12°C° 0 mm 4 m/S 767 mmHg 39%
    11:00 +14°C° 0 mm 4 m/S 767 mmHg 35%
    12:00 +15°C° 0 mm 5 m/S 766 mmHg 34%
    13:00 +15°C° 0 mm 5 m/S 766 mmHg 33%
    14:00 +16°C° 0 mm 5 m/S 765 mmHg 31%
    15:00 +16°C° 0 mm 5 m/S 765 mmHg 33%
    16:00 +17°C° 0 mm 4 m/S 764 mmHg 35%
    17:00 +15°C° 0 mm 4 m/S 764 mmHg 37%
    18:00 +16°C° 0 mm 3 m/S 764 mmHg 40%
    19:00 +14°C° 0 mm 3 m/S 764 mmHg 43%
    20:00 +13°C° 0 mm 3 m/S 764 mmHg 46%
    21:00 +12°C° 0 mm 3 m/S 764 mmHg 48%
    22:00 +12°C° 0 mm 3 m/S 764 mmHg 49%
    23:00 +12°C° 0 mm 3 m/S 764 mmHg 51%

    28 September, Freitag

    Zeit Temperatur Niederschläge Wind Luftdruck Luftfeuchtigkeit
    00:00 +12°C° 0 mm 2 m/S 764 mmHg 52%
    01:00 +12°C° 0 mm 2 m/S 763 mmHg 54%
    02:00 +12°C° 0 mm 2 m/S 763 mmHg 55%
    03:00 +12°C° 0 mm 2 m/S 763 mmHg 56%
    04:00 +12°C° 0 mm 2 m/S 763 mmHg 57%
    05:00 +12°C° 0 mm 2 m/S 763 mmHg 58%
    06:00 +13°C° 0 mm 2 m/S 763 mmHg 57%
    07:00 +14°C° 0 mm 2 m/S 762 mmHg 55%
    08:00 +15°C° 0 mm 2 m/S 762 mmHg 54%
    09:00 +17°C° 0 mm 2 m/S 762 mmHg 52%
    10:00 +19°C° 0 mm 2 m/S 762 mmHg 51%
    11:00 +21°C° 0 mm 2 m/S 762 mmHg 49%
    12:00 +21°C° 0 mm 2 m/S 761 mmHg 48%
    13:00 +23°C° 0 mm 2 m/S 761 mmHg 47%
    14:00 +24°C° 0 mm 2 m/S 760 mmHg 46%
    15:00 +23°C° 0 mm 2 m/S 760 mmHg 48%
    16:00 +23°C° 0 mm 1 m/S 759 mmHg 50%
    17:00 +22°C° 0 mm 1 m/S 759 mmHg 52%
    18:00 +22°C° 0 mm 1 m/S 759 mmHg 55%
    19:00 +21°C° 0 mm 1 m/S 759 mmHg 57%
    20:00 +20°C° 0 mm 1 m/S 759 mmHg 60%
    21:00 +19°C° 0 mm 1 m/S 759 mmHg 62%
    22:00 +19°C° 0 mm 1 m/S 759 mmHg 64%
    23:00 +18°C° 0 mm 1 m/S 759 mmHg 67%

    29 September, Samstag

    Zeit Temperatur Niederschläge Wind Luftdruck Luftfeuchtigkeit
    00:00 +18°C° 0 mm 1 m/S 759 mmHg 69%
    01:00 +16°C° 0 mm 1 m/S 758 mmHg 71%
    02:00 +16°C° 0 mm 1 m/S 758 mmHg 73%
    03:00 +16°C° 0 mm 1 m/S 758 mmHg 75%
    04:00 +15°C° 0 mm 1 m/S 758 mmHg 76%
    05:00 +15°C° 0 mm 1 m/S 758 mmHg 78%
    06:00 +16°C° 0 mm 1 m/S 758 mmHg 74%
    07:00 +17°C° 0 mm 2 m/S 758 mmHg 70%
    08:00 +18°C° 0 mm 2 m/S 758 mmHg 66%
    09:00 +20°C° 0 mm 1 m/S 758 mmHg 61%
    10:00 +22°C° 0 mm 1 m/S 758 mmHg 55%
    11:00 +23°C° 0 mm 1 m/S 757 mmHg 50%
    12:00 +24°C° 0 mm 1 m/S 757 mmHg 48%
    13:00 +24°C° 0 mm 1 m/S 756 mmHg 46%
    14:00 +25°C° 0 mm 2 m/S 756 mmHg 43%
    15:00 +24°C° 0.1 mm 2 m/S 756 mmHg 45%
    16:00 +24°C° 0.1 mm 2 m/S 756 mmHg 47%
    17:00 +23°C° 0.1 mm 2 m/S 756 mmHg 49%
    18:00 +21°C° 0.1 mm 2 m/S 756 mmHg 53%
    19:00 +20°C° 0.1 mm 2 m/S 756 mmHg 56%
    20:00 +20°C° 0.1 mm 2 m/S 757 mmHg 59%
    21:00 +19°C° 0 mm 3 m/S 757 mmHg 62%
    22:00 +18°C° 0 mm 3 m/S 757 mmHg 66%
    23:00 +18°C° 0 mm 3 m/S 757 mmHg 69%
    Mehr zeigen